Regional Weather Roundup
Issued by NWS

Home | Current Version | Previous Version | Graphics & Text | Print | Product List | Glossary Off
Versions: 1 2 3 4 5 6 7 8 9 10 11 12 13 14 15 16 17 18 19 20 21 22 23 24 25 26 27 28 29 30 31 32 33 34 35 36 37 38 39 40 41 42 43 44 45 46 47 48 49 50

000
ASUS43 KTOP 180108
RWRKS

WEATHER ROUNDUP FOR KANSAS
NATIONAL WEATHER SERVICE GOODLAND KS
800 PM CDT TUE OCT 17 2017

NOTE:  "FAIR" INDICATES FEW OR NO CLOUDS BELOW 12,000 FEET WITH NO
SIGNIFICANT WEATHER AND/OR OBSTRUCTIONS TO VISIBILITY.

KSZ001>006-013>018-027>032-041>047-180200-
NORTHWEST KANSAS

CITY           SKY/WX    TMP DP  RH WIND       PRES   REMARKS
GOODLAND       CLEAR     55  31  39 S10       30.04S
HAYS           CLEAR     61  44  53 S8        30.02R
HILL CITY      CLEAR     61  38  42 CALM      30.01R
RUSSELL        CLEAR     64  47  53 S12       30.00S
$$

KSZ061>065-074>080-084>089-180200-
SOUTHWEST KANSAS

CITY           SKY/WX    TMP DP  RH WIND       PRES   REMARKS
DODGE CITY     CLEAR     62  39  42 SE12      30.04R
ELKHART          N/A     65  42  43 S3          N/A
GARDEN CITY    CLEAR     60  39  45 SE9       30.03R
GREAT BEND     CLEAR     61  44  53 S10       30.04R
LIBERAL        CLEAR     61  42  49 S5        30.02S
PRATT          CLEAR     65  39  38 S12       30.06R
$$

KSZ066>073-081>083-090>101-180200-
SOUTHEAST KANSAS

CITY           SKY/WX    TMP DP  RH WIND       PRES   REMARKS
CHANUTE        CLEAR     59  47  64 S10       30.12R
COFFEYVILLE    CLEAR     59  47  64 S8        30.12S
HUTCHINSON     CLEAR     61  47  59 SE10      30.05R
MEDICINE LODGE   N/A     64  41  42 MISG      30.06R
NEWTON         CLEAR     61  45  55 S12       30.08R
PARSONS        CLEAR     59  46  62 SE3       30.13S
WICHITA INTL   CLEAR     60  46  59 S10       30.07R
WICHITA JABRA  CLEAR     59  46  62 S8        30.08R
WICHITA MCCONL CLEAR     61  44  55 S10       30.08R
WINFIELD       CLEAR     61  46  57 SE6       30.11R
$$

KSZ007>012-019>026-033>040-048>060-102>105-180200-
NORTHEAST KANSAS

CITY           SKY/WX    TMP DP  RH WIND       PRES   REMARKS
CONCORDIA      CLEAR     60  49  66 S10       30.01R
EMPORIA        CLEAR     59  45  59 S9        30.08R
LAWRENCE       CLEAR     59  48  67 SE8       30.08R
MANHATTAN      CLEAR     61  47  59 CALM      30.04R
MARYSVILLE     CLEAR     59  46  63 SE3       30.02S
OLATHE IND     CLEAR     57  46  66 S7        30.10R
OLATHE EXE     CLEAR     55  47  74 S8        30.10R
SALINA         CLEAR     63  49  60 S9        30.03R
TOPEKA BILLARD CLEAR     62  49  62 S6        30.06R
TOPEKA FORBES  CLEAR     62  49  62 S8        30.07R
$$




USA.gov is the U.S. government's official web portal to all federal, state and local government web resources and services.